Regional Weather Roundup
Issued by NWS

Home | Current Version | Previous Version | Graphics & Text | Print | Product List | Glossary On
Versions: 1 2 3 4 5 6 7 8 9 10 11 12 13 14 15 16 17 18 19 20 21 22 23 24 25 26 27 28 29 30 31 32 33 34 35 36 37 38 39 40 41 42 43 44 45 46 47 48 49 50
000
ASUS45 KSLC 181710
RWRUT

UTAH REGIONAL WEATHER ROUNDUP
NATIONAL WEATHER SERVICE SALT LAKE CITY UT
1000 AM MST SUN FEB 18 2018

UTZ001>011-023>025-181800-

NORTHERN UTAH

CITY           SKY/WX    TMP DP  RH WIND       PRES   REMARKS
BRIGHAM CITY   CLOUDY    41  31  69 NW7       29.61S
HILL AFB       CLOUDY    44  29  55 NW13      29.58F
LOGAN          SNOW      36  31  82 N15       29.60S VSB 1/2 WCI  27
OGDEN          CLOUDY    45  29  53 N10       29.58R
SALT LAKE CITY CLOUDY    53  15  22 S23G31    29.54F
TOOELE VALLEY  CLOUDY    54  19  26 S18G30    29.56F
WENDOVER       HAZE      54  23  30 W32G38    29.53F VSB 1
HEBER CITY       N/A     45  12  26 SW12G21   29.61F
WEST JORDAN    CLOUDY    49  20  31 SE22G38   29.57F

$$

UTZ011>015-024>027-181800-

CENTRAL/NORTHEAST UTAH

CITY           SKY/WX    TMP DP  RH WIND       PRES   REMARKS
PROVO AIRPORT  CLOUDY    49  21  33 S23G33    29.62F
MOAB/CANYONLAN SUNNY     54  22  28 SW23      29.71F
DELTA          PTSUNNY   45  18  33 S33       29.68F
PRICE          SUNNY     40  18  41 SE7       29.71F
RICHFIELD      SUNNY     52  14  22 SW20G28   29.70F
ROOSEVELT      SUNNY     45  16  31 E3        29.66F
VERNAL         SUNNY     42  16  34 SE5       29.64F

$$

UTZ013>016-019>022-027-181800-

SOUTHERN UTAH

CITY           SKY/WX    TMP DP  RH WIND       PRES   REMARKS
BRYCE CANYON   SUNNY     35  21  56 E7        29.86F WCI  29
CEDAR CITY     SUNNY     49  18  29 SW17G29   29.77F
MILFORD        SUNNY     47  21  35 S22G30    29.75S
ST GEORGE      CLOUDY    41  32  70 CALM      29.88F
HANKSVILLE     SUNNY     55  18  22 SW18G26   29.75F
KANAB          SUNNY     46  30  53 SW12      29.92F
BLANDING         N/A     42  24  48 SE8       29.97F

$$

REGIONAL REPORTS     COLORADO/ARIZONA

CITY           SKY/WX    TMP DP  RH WIND       PRES   REMARKS
CRAIG, CO      SUNNY     44  18  35 SW30G41   29.63F
GRAND JUNCTION SUNNY     47  23  38 S3        29.73F
RIFLE, CO      SUNNY     32  22  66 E5        29.72F WCI  27
MONTROSE, CO   SUNNY     51  16  24 E12       29.80F
CORTEZ, CO     SUNNY     48  22  35 SW14      29.93F
COLORADO CITY    N/A     48  32  53 SE6       29.91F
PAGE, AZ       SUNNY     46  25  43 CALM      29.86F
GRAND CANYON   PTSUNNY   39  34  82 SW16G25   29.94F WCI  30
KINGMAN, AZ    SUNNY     55  29  36 CALM      29.92F
FLAGSTAFF, AZ  MOSUNNY   38  29  70 SW20G26   29.99S WCI  28

$$

REGIONAL REPORTS    NEVADA/IDAHO/WYOMING

CITY           SKY/WX    TMP DP  RH WIND       PRES   REMARKS
LAS VEGAS, NV  MOSUNNY   62  21  20 S13G20    29.82S
ELY, NY        SUNNY     46  11  24 S14G22    29.67F
ELKO, NV       FLURRIES  36  32  85 VRB3G16   29.60S
POCATELLO, ID  PTSUNNY   34  29  82 SW30G37   29.57F WCI  20
BURLEY, ID     FLURRIES  32  29  88 W15G28    29.59F WCI  22
EVANSTON, WY   CLOUDY    39  17  41 SW26G53   29.54S WCI  28
ROCK SPRINGS,  CLOUDY    44  11  26 SW21      29.52F

$$



USA.gov is the U.S. government's official web portal to all federal, state and local government web resources and services.